GALAXY 16 (G-16)        
1 29236U 06023A   19259.07271639 -.00000135  00000-0  00000+0 0  9993
2 29236   0.0248 180.0139 0002842 359.4052 102.4862  1.00269774 48533
BLOCK DM-SL R/B         
1 29237U 06023B   19258.83670986 -.00000152  00000-0  00000-0 0  9995
2 29237   0.9595  14.5033 6616893 140.8397 160.0968  2.15890780104409